Flag for Brazil Weather past 2 weeks in Boa Vista, Roraima, Brazil

Now
88 °F

Passing clouds.


Feels Like: 91 °F
Forecast: 78 / 94 °F
Wind: 10 mph from Northeast

Location: Boa Vista Aeropor-To

Current Time: Oct 2, 2014 at 11:42:33 AM

Latest Report: Oct 2, 2014 at 11:00 AM


Visibility: N/A

Pressure: 29.95 "Hg

Humidity: 52%

Dew point: 68 °F

Location of Boa VistaLocation

Historic Weather in Boa Vista — Graph

°F

Boa Vista temperature yesterday

Maximum temperature yesterday: 91 °F (at 3:00 PM)
Minimum temperature yesterday: 73 °F (at 3:00 AM)
Average temperature yesterday: 81 °F

Past Weeks' High & Low Weather Summary

 TemperatureHumidityPressure
High99 °F (Sep 29, 3:00 PM)100% (Sep 18, 7:00 AM)30.01 "Hg (Sep 18, 7:00 AM)
Low37 °F (Sep 18, 7:00 AM)33% (Sep 29, 3:00 PM)29.74 "Hg (Sep 25, 5:00 PM)
Average81 °F65%29.87 "Hg
* Reported Sep 17 10:00 AM — Oct 2 10:00 AM, Boa Vista, Weather by CustomWeather, © 2014

Note: Actual official high and low records may vary slightly from our data, if they occured in-between our weather recording intervals... More about our weather records

Advertising

Boa Vista weather history for previous 24 hours

 ConditionsComfort  
Time TempWeatherWind HumidityBarometerVisibility
10:00 AM
Oct 2
86 °FPassing clouds.14 mph55%29.95 "HgN/A
9:00 AM82 °FSunny.13 mph62%29.95 "Hg10 mi
8:00 AM81 °FSunny.13 mph70%29.95 "Hg10 mi
7:00 AM75 °FSunny.8 mph83%29.95 "Hg10 mi
6:00 AM75 °FSunny.8 mph78%29.92 "Hg10 mi
5:00 AM75 °FClear.6 mph78%29.89 "Hg10 mi
4:00 AM75 °FClear.3 mph78%29.89 "Hg10 mi
3:00 AM77 °FClear.5 mph79%29.86 "Hg10 mi
2:00 AM77 °FClear.8 mph79%29.86 "Hg10 mi
1:00 AM77 °FClear.6 mph79%29.89 "Hg10 mi
12:00 AM77 °FClear.6 mph79%29.89 "Hg10 mi
11:00 PM
Oct 1
79 °FClear.6 mph74%29.89 "Hg10 mi
10:00 PM79 °FClear.7 mph74%29.86 "Hg10 mi
9:00 PM81 °FClear.8 mph66%29.86 "Hg10 mi
8:00 PM84 °FPassing clouds.3 mph58%29.86 "HgN/A
7:00 PM82 °FPassing clouds.2 mph62%29.83 "HgN/A
6:00 PM84 °FPassing clouds.5 mph58%29.83 "HgN/A
5:00 PM90 °FScattered clouds.12 mph46%29.80 "HgN/A
4:00 PM90 °FScattered clouds.9 mph46%29.83 "HgN/A
3:00 PM91 °FScattered clouds.14 mph44%29.83 "HgN/A
2:00 PM90 °FBroken clouds.12 mph46%29.86 "HgN/A
1:00 PM88 °FPartly sunny.7 mph52%29.92 "HgN/A
12:00 PM86 °FScattered clouds.9 mph55%29.95 "HgN/A
11:00 AM84 °FScattered clouds.12 mph62%29.98 "HgN/A
Weather by CustomWeather, © 2014

See weather overviewHow to use our weather pages